This is the latest recevied weather packets stored in our database for station/object KB0Y. If no packets are shown the sender has not sent any weather packets the latest 10 day(s).
| Time | Temp. | Humidity | Pressure | Rain* | Wind** | Luminosity | Snow |
|---|---|---|---|---|---|---|---|
| 1777732884 | 15° C | 99% | 1014.9 hPa | 5.33 mm | - | 73 W/m² | - |
| 1777732580 | 15° C | 99% | 1015.2 hPa | 5.33 mm | - | 74 W/m² | - |
| 1777732278 | 15° C | 99% | 1015.2 hPa | 5.33 mm | - | 82 W/m² | - |
| 1777731975 | 15° C | 99% | 1015.6 hPa | 7.11 mm | - | 58 W/m² | - |
| 1777731671 | 15° C | 99% | 1015.9 hPa | 5.33 mm | - | 46 W/m² | - |
| 1777731369 | 15° C | 99% | 1016.6 hPa | 5.33 mm | - | 23 W/m² | - |
| 1777731067 | 15° C | 99% | 1015.6 hPa | 7.11 mm | - | 19 W/m² | - |
| 1777730765 | 15° C | 99% | 1014.5 hPa | 8.89 mm | - | 43 W/m² | - |
| 1777730461 | 15° C | 99% | 1014.5 hPa | 7.11 mm | - | 70 W/m² | - |
| 1777730156 | 15° C | 99% | 1014.9 hPa | 8.89 mm | - | 69 W/m² | - |
| 1777729854 | 15° C | 99% | 1014.9 hPa | 8.89 mm | - | 101 W/m² | - |
| 1777729550 | 15° C | 99% | 1014.5 hPa | 10.92 mm | - | 36 W/m² | - |
| 1777729247 | 15° C | 99% | 1015.6 hPa | 8.89 mm | - | 12 W/m² | - |
| 1777728944 | 15° C | 99% | 1015.6 hPa | 8.89 mm | - | 9 W/m² | - |
| 1777728641 | 15° C | 99% | 1015.6 hPa | 7.11 mm | - | 5 W/m² | - |
| 1777728338 | 15° C | 99% | 1014.5 hPa | 1.78 mm | - | 12 W/m² | - |
| 1777728035 | 15° C | 99% | 1014.5 hPa | 3.56 mm | - | 8 W/m² | - |
| 1777727732 | 15° C | 99% | 1014.2 hPa | 10.92 mm | - | 11 W/m² | - |
| 1777727428 | 15° C | 99% | 1013.9 hPa | 10.92 mm | - | 39 W/m² | - |
| 1777727126 | 15° C | 99% | 1014.2 hPa | 12.7 mm | - | 43 W/m² | - |
| 1777726824 | 15° C | 99% | 1014.5 hPa | 10.92 mm | - | 42 W/m² | - |
| 1777726520 | 15° C | 99% | 1014.2 hPa | 14.48 mm | - | 31 W/m² | - |
| 1777725914 | 15° C | 99% | 1013.9 hPa | 14.48 mm | - | 3 W/m² | - |
| 1777725611 | 15° C | 99% | 1014.9 hPa | 14.48 mm | - | 0 W/m² | - |
| 1777725309 | 15° C | 99% | 1015.6 hPa | 12.7 mm | - | 0 W/m² | - |
* Rain latest hour (hover to see other rain measurements)
** Current wind speed in m/s (hover to see current wind gust speed)